{"data":{"norad_id":51731,"epoch":"2026-09-19T22:54:54.320832Z","epoch_age_seconds":95569,"freshness":"FRESH","line1":"1 51731U 22016T   26262.95479538 -.00000311  00000+0  19786-5 0  9997","line2":"2 51731  53.1597 152.2877 0001226  89.6201 270.4943 15.35391130253097","mean_motion":15.3539113,"eccentricity":0.0001226,"inclination_deg":53.1597,"raan_deg":152.2877,"arg_perigee_deg":89.6201,"mean_anomaly_deg":270.4943,"bstar":1.9786e-6,"rev_number":25309,"period_min":93.787177212623,"perigee_km":458.92065171906,"apogee_km":460.59730381281,"semimajor_km":6837.8959777659,"source":"CELESTRAK","updated_at":"2026-09-20T09:00:39.929298Z"}}